Regional Weather Roundup
Issued by NWS Sterling, VA

Home | Current Version | Previous Version | Text Only | Print | Product List | Glossary Off
Versions: 1 2 3 4 5 6 7 8 9 10 11 12 13 14 15 16 17 18 19 20 21 22 23 24 25 26 27 28 29 30 31 32 33 34 35 36 37 38 39 40 41 42 43 44 45 46 47 48 49 50

000
ASUS41 KLWX 031810
RWRLWX

REGIONAL WEATHER ROUNDUP
NATIONAL WEATHER SERVICE BALTIMORE MD/WASHINGTON DC
200 PM EDT MON AUG 03 2015

Note: "FAIR" indicates few or no clouds below 12,000 feet
with no significant weather and/or obstructions to visibility.
 TC=TEMPERATURE CELSIUS

 * =Non NWS site. Station does not report precipitation (e.g. rain,
    snow, etc.), thunder, or fog.

DCZ001-MDZ009-015-VAZ040>042-051-053>054-031900-
WASHINGTON METRO

CITY           SKY/WX    TMP DP  RH WIND       PRES   REMARKS
WASHINGTON NAT PTSUNNY   90  66  45 S14       29.84F HX  92
DULLES         MOSUNNY   87  62  43 SW12      29.84F
ANDREWS AFB    SUNNY     89  60  37 VRB3      29.84F
FT BELVOIR     SUNNY     89  63  41 S8        29.84F HX  90
QUANTICO       MOSUNNY   94  60  31 S7        29.82S HX  94
COLLEGE PARK*  SUNNY     90  57  33 S3        29.83F
LEESBURG*      MOSUNNY   91  63  38 SW12      29.85F HX  92
MANASSAS*      SUNNY     88  61  40 SW6       29.84
GAITHERSBURG*  MOSUNNY   90  59  35 SW8       29.87F

$$

MDZ006>007-011-014-031900-
BALTIMORE METRO

CITY           SKY/WX    TMP DP  RH WIND       PRES   REMARKS
BWI AIRPORT    MOSUNNY   90  57  32 SW9       29.82F
MD SCIENCE CTR   N/A     91  55  29 MISG      29.82F
MARTIN STATE   MOSUNNY   88  70  55 SE15      29.84F HX  92
ANNAPOLIS      SUNNY     88  58  36 W3        29.83F
FORT MEADE*    SUNNY     88  57  35 S8        29.85F

$$

MDZ012-015-019>023-031900-
MARYLAND EASTERN SHORE

CITY           SKY/WX    TMP DP  RH WIND       PRES   REMARKS
OCEAN CITY     MOSUNNY   85  75  72 S9G20     29.87F HX  93
SALISBURY      SUNNY     89  64  43 W14       29.86F HX  90
BAY BRIDGE AP*   N/A     88  59  37 S8        29.84F
CAMBRIDGE*     SUNNY     88  63  42 S7        29.86F
EASTON*        MOSUNNY   90  64  43 SW17G23   29.90S HX  91

$$

MDZ017>025-031900-
SOUTHERN MARYLAND

CITY           SKY/WX    TMP DP  RH WIND       PRES   REMARKS
PATUXENT RIVER MOSUNNY   88  64  44 SW10      29.86F
ST INIGOES     SUNNY     87  68  52 VRB7      29.86F HX  90
LEONARDTOWN*   SUNNY     86  64  48 S8        29.88F

$$

MDZ003>005-031900-
NORTH CENTRAL MARYLAND

CITY           SKY/WX    TMP DP  RH WIND       PRES   REMARKS
FREDERICK*     SUNNY     90  64  43 SW12G17   29.84  HX  91
HAGERSTOWN APT MOSUNNY   89  56  32 SW13G20   29.82F
WESTMINSTER*   MOSUNNY   91  57  31 SW14      29.84S HX  90

$$

MDZ501>502-031900-
WESTERN MARYLAND

CITY           SKY/WX    TMP DP  RH WIND       PRES   REMARKS
OAKLAND*       CLOUDY    73  68  83 SW6       29.97R
CUMBERLAND*    CLOUDY    88  54  31 SW10      29.88S

$$

VAZ025>031-031900-
SHENANDOAH VALLEY

CITY           SKY/WX    TMP DP  RH WIND       PRES   REMARKS
WINCHESTER*    PTSUNNY   91  59  33 S13G20    29.84F HX  90
FRONT ROYAL*   FAIR      86  63  45 S9        29.85S
LURAY*         FAIR      90  61  37 S12       29.87F
NEW MARKET*    FAIR      85  63  47 S8        29.85S
STAUNTON*      MOSUNNY   89  57  33 SW7       29.92F
WAYNESBORO*    FAIR      83  60  45 SW8G16    29.92F

$$

WVZ021-048>050-054>055-031900-
EASTERN WEST VIRGINIA PANHANDLE

CITY           SKY/WX    TMP DP  RH WIND       PRES   REMARKS
MARTINSBURG    PTSUNNY   88  57  34 W15       29.84R
PETERSBURG*    PTSUNNY  N/A N/A N/A SW3       29.87S

$$

VAZ036>039-050-031900-
CENTRAL FOOTHILLS

CITY           SKY/WX    TMP DP  RH WIND       PRES   REMARKS
CHARLOTTESVILL MOSUNNY   87  62  43 SW7       29.87F
CULPEPER*      MOSUNNY   86  64  47 S3        29.86F
ORANGE*        MOSUNNY   88  63  42 S9G17     29.88F
GORDONSVILLE*  FAIR      88  64  45 S15       29.86F
WARRENTON*     FAIR      89  67  48 S5        29.85F HX  92

$$

VAZ055>057-031900-
NORTH AND CENTRAL PIEDMONT

CITY           SKY/WX    TMP DP  RH WIND       PRES   REMARKS
FREDERICKSBRG* SUNNY     91  64  40 SW9       29.85F HX  92
STAFFORD*      SUNNY     88  57  34 SW6       29.90S

$$

NCZ024-NYZ072-PAZ021-071-VAZ022-071-031900-
OTHER REGIONAL OBSERVATIONS

CITY           SKY/WX    TMP DP  RH WIND       PRES   REMARKS
NEW YORK CITY  MOSUNNY   87  62  43 MISG      29.82F
PHILADELPHIA   MOSUNNY   90  61  37 S15       29.82F HX  90
PITTSBURGH     PTSUNNY   81  58  45 SW9G17    29.85S
ROANOKE        MOSUNNY   88  55  32 S9G20     29.94F
RICHMOND       MOSUNNY   88  70  55 SW6       29.87F HX  93
RALEIGH        PTSUNNY   91  67  44 SW12      29.93F HX  94

$$

ANZ530>537-031900-
MARINE OBSERVATIONS

STATION/POSITION TIME  TEMP    WIND        PRES
                       AIR SEA DIR/SP/G
                 (UTC) (F)     (DEG/KT/KT) (MB)
THOMAS PT LIGHT  1700   83 81  190/ 13       N/A
BALT KEY BRIDGE  1700   85     150/  6/  8 1010.2F
COVE POINT       1700   84     270/  5/ 10 1012.3F
LEWISETTA        1700   85 84  220/  7/  9 1011.3F
SOLOMONS ISLAND  1700      83                N/A
PINEY POINT      1700          330/  3/  4   N/A

$$




USA.gov is the U.S. government's official web portal to all federal, state and local government web resources and services.